Погода в Раздольном

Россия / Новосибирская область     55°03′27″N   83°07′44″E
темп.,
°C
ветер,
м/с
пор.,
м/с
влажн.,
%
обл.,
%
осадки,
мм/ч
давл.,
гПа
погр.,
м
18 января, пн
пн1801:00−11ююз61394100 0.1 1016335
04:00−9ююз81790100 0.0 1013449
07:00−8ююз81787100 0.0 1010667
10:00−8юз71394100 0.8 1008652
13:00−9юз71393100 0.9 1009686
16:00−9зюз71291100 0.2 1009843
19:00−13зюз51294100 0.3 1012503
22:00−17зюз51197100 0.1 1015323
19 января, вт
вт1901:00−21зюз47100100 0.1 1018127
04:00−23юз4510093 0.0 101990
07:00−25юз359979 0.0 102183
10:00−25юз469960 0.0 1021106
13:00−21юз599667 0.0 1022304
16:00−20юз5109597 0.0 1021373
19:00−25зюз479885 0.0 102398
22:00−28з3310063 0.0 102532
20 января, ср
ср2001:00−30зюз2210063 0.0 102819
04:00−32з111001 0.0 103019
07:00−33юз111000 0.0 103219
10:00−32ююв11960 0.0 103319
13:00−26ююв11860 0.0 1033134
16:00−24всв228926 0.0 1033153
19:00−28в238855 0.0 103319
22:00−26в358699 0.0 103196
21 января, чт
чт2101:00−24в3386100 0.0 102879
04:00−20в3584100 0.0 1025161
07:00−17вюв3696100 0.3 1022257
10:00−15ю3896100 0.4 1020279
13:00−13ююз4694100 0.5 1018327
16:00−12юз4895100 0.1 1016368
19:00−13ююз3797100 0.1 1014191
22:00−13ююз4796100 0.0 1012253
22 января, пт
пт2201:00−13юз4895100 0.1 1010293
04:00−17зюз4797100 0.3 1009146
07:00−22зюз4109882 0.3 1011225
10:00−25юз499881 0.0 1015180
13:00−22юз6119679 0.0 1016337
16:00−21юз6109497 0.0 1018414
19:00−23юз5109695 0.0 1019254
22:00−24юз599776 0.0 1020254